Home   Weather   Provincetown   Past weeks

Flag for USA Past Weather in Provincetown, Massachusetts, USA — Yesterday and Last 2 Weeks

Now
65 °F

Sunny.


Feels Like: 65 °F
Forecast: 52 / 60 °F
Wind: 14 mph from Southwest

Location: Provincetown Weather Reporting Station

Current Time: Apr 29, 2017 at 11:57:03 am

Latest Report: Apr 29, 2017 at 10:56 am


Visibility: 10 mi

Pressure: 29.95 "Hg

Humidity: 76%

Dew Point: 57 °F

Location of ProvincetownLocation

Past Weather in Provincetown — Graph

°F

Provincetown Temperature Yesterday

Maximum temperature yesterday: 70 °F (at 2:56 pm)
Minimum temperature yesterday: 53 °F (at 12:56 am)
Average temperature yesterday: 57 °F

High & Low Weather Summary for the Past Weeks

 TemperatureHumidityPressure
High70 °F (Apr 28, 2:56 pm)100% (Apr 16, 4:38 am)30.60 "Hg (Apr 16, 4:38 am)
Low28 °F (Apr 19, 4:56 am)29% (Apr 14, 3:56 pm)29.69 "Hg (Apr 16, 6:56 pm)
Average50 °F86%30.09 "Hg
* Reported Apr 14 9:56 am — Apr 29 9:56 am, Provincetown, Weather by CustomWeather, © 2017

Note: Actual official high and low records may vary slightly from our data, if they occured in-between our weather recording intervals... More about our weather records

Advertising

Provincetown Weather History for the Previous 24 Hours

Scroll right to see more
 ConditionsComfort  
Time TempWeatherWind HumidityBarometerVisibility
9:56 am
Sat, Apr 29
61 °FSunny.10 mph78%29.97 "Hg10 mi
8:56 am61 °FScattered clouds.9 mph72%29.97 "Hg10 mi
7:56 am58 °FScattered clouds.8 mph81%29.99 "Hg10 mi
6:56 am56 °FSunny.6 mph87%29.99 "Hg10 mi
5:56 am54 °FScattered clouds.9 mph90%30.00 "Hg10 mi
4:56 am54 °FClear.8 mph93%30.01 "Hg10 mi
3:56 am54 °FClear.10 mph90%30.00 "Hg10 mi
2:56 am56 °FClear.8 mph90%30.01 "Hg10 mi
1:56 am57 °FClear.8 mph87%30.01 "Hg10 mi
12:56 am55 °FClear.9 mph90%30.03 "Hg10 mi
11:56 pm
Fri, Apr 28
55 °FClear.12 mph90%30.02 "Hg10 mi
10:56 pm53 °FClear.10 mph93%30.02 "Hg7 mi
9:56 pm55 °FClear.12 mph93%30.02 "Hg7 mi
8:56 pm57 °FClear.16 mph93%30.00 "Hg9 mi
7:56 pm58 °FClear.14 mph90%29.97 "Hg10 mi
6:56 pm61 °FSunny.N/A83%29.96 "Hg10 mi
5:56 pm63 °FSunny.17 mph81%29.94 "Hg10 mi
5:35 pm64 °FPassing clouds.16 mph78%29.94 "Hg10 mi
4:56 pm67 °FSunny.16 mph76%29.94 "Hg10 mi
3:56 pm67 °FSunny.15 mph76%29.93 "Hg10 mi
2:56 pm70 °FSunny.15 mph73%29.96 "Hg10 mi
1:56 pm66 °FSunny.12 mph78%29.97 "Hg10 mi
12:56 pm60 °FSunny.12 mph86%29.98 "Hg10 mi
11:56 am62 °FSunny.13 mph90%29.96 "Hg10 mi
11:26 am61 °FPassing clouds.12 mph94%29.97 "Hg10 mi
11:02 am57 °FFog.12 mph100%29.98 "Hg3 mi
Weather by CustomWeather, © 2017

See weather overviewHow to use our weather pages